Sigfox identifier Datetime Temperature Humidity SNR
00395302 2018-10-09 08:30:43 21 39 22.1
00395302 2018-10-09 07:29:42 21 39 22.1
00395302 2018-10-09 06:28:44 21 39 21.9
00395302 2018-10-09 05:27:45 21 38 21.8
00395302 2018-10-09 01:23:49 21 37 20.9
00395302 2018-10-09 00:22:52 21 37 20.6
00395302 2018-10-08 23:21:52 21 37 19.7
00395302 2018-10-08 22:20:55 21 37 19.6
00395302 2018-10-08 21:19:53 21 37 19.2
00395302 2018-10-08 20:18:52 21 36 18.4
00395302 2018-10-08 19:17:51 21 36 18.1
00395302 2018-10-08 18:16:53 21.1 36 18.3
00395302 2018-10-08 17:15:54 21.1 36 17.7
00395302 2018-10-08 16:14:54 21 36 17.6
00395302 2018-10-08 15:13:55 21 36 17.7
00395302 2018-10-08 14:12:56 21 36 17.6
00395302 2018-10-08 13:11:56 21 36 19.9
00395302 2018-10-08 12:10:58 21.2 38 19.5
00395302 2018-10-08 11:09:56 20.7 33 19.5
00395302 2018-10-08 10:08:54 20.6 32 19.5
00395302 2018-10-08 09:07:57 20.5 32 19.5
00395302 2018-10-08 08:06:53 20.5 32 19.6
00395302 2018-10-08 07:05:51 20.5 33 19.5
00395302 2018-10-08 06:04:50 20.5 33 19.7
00395302 2018-10-08 05:03:49 20.5 33 19.7
00395302 2018-10-08 04:02:48 20.5 34 19.6
00395302 2018-10-08 03:01:48 20.5 34 19.5
00395302 2018-10-08 02:00:48 20.5 34 19.6
00395302 2018-10-08 00:59:46 20.5 35 19.4
00395302 2018-10-07 23:58:49 20.6 35 19.4
00395302 2018-10-07 22:57:48 20.7 36 19.2
00395302 2018-10-07 21:56:47 20.7 36 19.3
00395302 2018-10-07 20:55:47 20.7 37 19.3
00395302 2018-10-07 19:54:45 20.7 37 19.2
00395302 2018-10-07 18:53:48 20.7 37 19
00395302 2018-10-07 17:52:43 20.7 37 18.8
00395302 2018-10-07 16:51:42 20.7 37 18.6
00395302 2018-10-07 15:50:44 20.7 37 18.3
00395302 2018-10-07 14:49:43 20.7 37 18.3
00395302 2018-10-07 13:48:43 20.7 37 18.3
00395302 2018-10-07 12:47:45 20.7 37 18.3
00395302 2018-10-07 11:46:45 20.7 37 15
00395302 2018-10-07 10:45:47 20.7 37 15.2
00395302 2018-10-07 09:44:51 20.7 37 15.5
00395302 2018-10-07 08:43:47 20.7 37 15.9
00395302 2018-10-07 07:42:46 20.7 38 15.7
00395302 2018-10-07 06:41:42 20.7 38 16.2
00395302 2018-10-07 05:40:41 20.7 38 16.2
00395302 2018-10-07 04:39:40 20.7 38 15.7
00395302 2018-10-07 03:38:36 20.7 38 15.8
00395302 2018-10-07 02:37:32 20.7 39 16.2
00395302 2018-10-07 01:36:24 20.7 39 16.3
00395302 2018-10-07 00:35:19 20.9 39 16.1
00395302 2018-10-06 23:34:16 21 39 16
00395302 2018-10-06 22:33:14 21 39 16.2
00395302 2018-10-06 21:32:13 21 39 16.5
00395302 2018-10-06 20:31:06 21 39 16.3
00395302 2018-10-06 19:29:58 21 39 16.3
00395302 2018-10-06 18:28:55 21 39 16.3
00395302 2018-10-06 17:27:52 21 39 16.9
00395302 2018-10-06 16:26:50 21 39 17.2
00395302 2018-10-06 15:25:46 21 39 17.2
00395302 2018-10-06 14:24:44 21 39 17.7
00395302 2018-10-06 13:23:39 21 39 17.6
00395302 2018-10-06 12:22:38 21 39 17.7
00395302 2018-10-06 11:21:35 21 39 17.9
00395302 2018-10-06 10:20:32 21 39 17.8
00395302 2018-10-06 09:19:30 21 39 17.7
00395302 2018-10-06 08:18:27 21 39 18.1
00395302 2018-10-06 07:17:22 21 39 18.1
00395302 2018-10-06 06:16:19 21 40 18.3
00395302 2018-10-06 05:15:16 21.2 40 18
00395302 2018-10-06 04:14:10 21.1 40 18
00395302 2018-10-06 03:13:07 21.1 41 18.4
00395302 2018-10-06 02:12:04 21.2 41 18.4
00395302 2018-10-06 01:11:03 21.2 41 18.1
00395302 2018-10-06 00:10:00 21.2 42 18.2
00395302 2018-10-05 23:08:58 21.3 42 18.2
00395302 2018-10-05 22:07:55 21.3 43 18.5
00395302 2018-10-05 21:06:52 21.4 43 18.5
00395302 2018-10-05 20:05:49 21.4 43 18.3
00395302 2018-10-05 19:04:47 21.4 44 18.3
00395302 2018-10-05 18:03:44 21.6 44 18.1
00395302 2018-10-05 17:02:42 21.6 44 18.2
00395302 2018-10-05 16:01:39 21.6 44 17.8
00395302 2018-10-05 15:00:37 21.6 43 17.6
00395302 2018-10-05 13:59:32 21.4 42 17.7
00395302 2018-10-05 12:58:32 21.4 41 17.1
00395302 2018-10-05 11:57:28 21.4 39 17.1
00395302 2018-10-05 10:56:27 21.1 39 17
00395302 2018-10-05 09:55:27 21 36 16.8
00395302 2018-10-05 08:54:23 20.8 34 16.8
00395302 2018-10-05 07:53:22 20.7 31 16.9
00395302 2018-10-05 06:52:16 20.7 30 16.3
00395302 2018-10-05 05:51:11 20.7 29 15.9
00395302 2018-10-05 04:50:11 20.7 29 15.7
00395302 2018-10-05 03:49:09 20.7 29 15.8
00395302 2018-10-05 02:48:07 20.7 29 15.9
00395302 2018-10-05 01:47:06 20.9 29 14.8
00395302 2018-10-05 00:46:04 21 30 14.8
00395302 2018-10-04 23:44:58 21 30 15.1
00395302 2018-10-04 22:43:53 21.1 30 15.1
00395302 2018-10-04 21:42:50 21.1 30 15.1
00395302 2018-10-04 20:41:46 21.2 29 13.9
00395302 2018-10-04 19:40:41 21.2 29 13.5
00395302 2018-10-04 18:39:33 21.2 28 13.6
00395302 2018-10-04 17:38:27 21.2 28 13.8
00395302 2018-10-04 16:37:24 21.2 28 14
00395302 2018-10-04 15:36:18 21 28 13.9
00395302 2018-10-04 14:35:15 21 29 13.7
00395302 2018-10-04 13:34:08 20.9 30 13.8
00395302 2018-10-04 12:33:09 20.9 30 10.9
00395302 2018-10-04 11:32:06 20.7 31 12.1
00395302 2018-10-04 10:31:06 20.7 33 7.9
00395302 2018-10-04 09:30:04 20.3 43 0